Sterling, IL

1:11 AM CST on November 15, 2019 (GMT -0600)
Whiteside County-Bittorf

Weather History for KSQI - September, 2019

Change the Weather History Date:

Monday, September 30, 2019

  Actual Average Record
Temperature  
Mean Temperature 74 °F -  
Max Temperature 87 °F 67 °F 87 °F (2002)
Min Temperature 62 °F 43 °F 33 °F (2003)
Cooling Degree Days 10    
Growing Degree Days 24 (Base 50)    
Moisture  
Dew Point 68 °F    
Average Humidity 90    
Maximum Humidity 100    
Minimum Humidity 59    
Precipitation  
Precipitation 0.00 in - - ()
Sea Level Pressure  
Sea Level Pressure 29.78 in    
Wind  
Wind Speed 4 mph ()    
Max Wind Speed 8 mph    
Max Gust Speed 16 mph    
Visibility 4.8 miles    
Events Fog    
Averages and records for this station are not official NWS values.
T = Trace of Precipitation, MM = Missing Value Source: Averaged Metar Reports

Daily Weather History Graph

Daily Weather History Graph

Search for Another Location

Airport or City:

Astronomy

Sep. 30, 2019 Rise Set
Actual Time 6:54 AM CDT 6:42 PM CDT
Civil Twilight 6:26 AM CDT 7:10 PM CDT
Nautical Twilight 5:54 AM CDT 7:42 PM CDT
Astronomical Twilight 5:21 AM CDT 8:14 PM CDT
Moon 8:59 AM CDT (9/30) 8:16 PM CDT (9/30)
Length of Visible Light 12h 43m
Length of Day
11h 48m
Waxing Crescent, 6% of the Moon is Illuminated
Sep 30
Waxing Crescent
Oct 5
First Quarter
Oct 13
Full
Oct 21
Last Quarter
Oct 27
New

Hourly Weather History & Observations

Time (CDT) Temp. Heat Index Dew Point Humidity Pressure Visibility Wind Dir Wind Speed Gust Speed Precip Events Conditions
12:14 AM 68.0 °F - 68.0 °F 100% 30.06 in 0.2 mi East 5.8 mph - N/A Fog Fog
12:28 AM 68.0 °F - 68.0 °F 100% 30.06 in 0.5 mi East 4.6 mph - N/A Fog Fog
12:56 AM 68.0 °F - 68.0 °F 100% 29.65 in 0.5 mi East 5.8 mph - N/A Fog Fog
1:03 AM 68.0 °F - 68.0 °F 100% 30.05 in 0.8 mi East 4.6 mph - N/A   Overcast
1:10 AM 68.0 °F - 68.0 °F 100% 30.05 in 1.0 mi East 5.8 mph - N/A   Overcast
1:40 AM 68.0 °F - 68.0 °F 100% 30.06 in 0.8 mi East 4.6 mph - N/A   Overcast
1:49 AM 68.0 °F - 68.0 °F 100% 30.05 in 0.5 mi ESE 4.6 mph - N/A Fog Fog
1:56 AM 68.0 °F - 68.0 °F 100% 29.65 in 0.5 mi East 4.6 mph - N/A Fog Fog
2:05 AM 68.0 °F - 68.0 °F 100% 30.05 in 0.8 mi East 4.6 mph - N/A   Overcast
2:49 AM 66.2 °F - 66.2 °F 100% 30.04 in 0.8 mi East 4.6 mph - N/A   Mostly Cloudy
2:56 AM 66.0 °F - 66.0 °F 100% 29.64 in 0.8 mi East 4.6 mph - N/A   Mist
3:02 AM 66.2 °F - 66.2 °F 100% 30.03 in 1.2 mi East 4.6 mph - N/A   Scattered Clouds
3:14 AM 64.4 °F - 64.4 °F 100% 30.03 in 0.8 mi East 3.5 mph - N/A   Mist
3:22 AM 64.4 °F - 64.4 °F 100% 30.03 in 0.8 mi East 3.5 mph - N/A   Clear
3:34 AM 64.4 °F - 64.4 °F 100% 30.03 in 0.2 mi East 3.5 mph - N/A Fog Fog
3:48 AM 64.4 °F - 64.4 °F 100% 30.03 in 0.5 mi ESE 3.5 mph - N/A Fog Fog
3:56 AM 64.9 °F - 64.9 °F 100% 29.63 in 0.5 mi Calm Calm - N/A Fog Fog
4:01 AM 64.4 °F - 64.4 °F 100% 30.03 in 1.0 mi Calm Calm - N/A   Clear
4:13 AM 64.4 °F - 64.4 °F 100% 30.03 in 0.5 mi East 4.6 mph - N/A Fog Fog
4:31 AM 62.6 °F - 62.6 °F 100% 30.03 in 0.8 mi East 3.5 mph - N/A   Clear
4:44 AM 64.4 °F - 64.4 °F 100% 30.03 in 0.5 mi East 3.5 mph - N/A Fog Fog
4:52 AM 63.0 °F - 63.0 °F 100% 29.63 in 1.0 mi East 3.5 mph - N/A   Partly Cloudy
4:59 AM 64.4 °F - 64.4 °F 100% 30.03 in 2.0 mi East 3.5 mph - N/A   Mostly Cloudy
5:21 AM 64.4 °F - 64.4 °F 100% 30.03 in 3.0 mi ESE 3.5 mph - N/A   Overcast
5:56 AM 66.9 °F - 66.9 °F 100% 29.63 in 9.0 mi Variable 3.5 mph - N/A   Mostly Cloudy
6:56 AM 68.0 °F - 68.0 °F 100% 29.63 in 9.0 mi SE 4.6 mph - N/A   Mostly Cloudy
7:56 AM 68.0 °F - 68.0 °F 100% 29.63 in 10.0 mi SE 3.5 mph - N/A   Mostly Cloudy
8:56 AM 71.1 °F - 69.1 °F 93% 29.62 in 10.0 mi Variable 3.5 mph - N/A   Overcast
9:56 AM 73.9 °F - 70.0 °F 87% 29.62 in 10.0 mi Variable 4.6 mph - N/A   Overcast
10:56 AM 75.9 °F - 71.1 °F 85% 29.61 in 10.0 mi Variable 3.5 mph - N/A   Overcast
11:56 AM 80.1 °F 83.6 °F 71.1 °F 74% 29.59 in 10.0 mi Variable 4.6 mph - N/A   Mostly Cloudy
12:56 PM 82.9 °F 88.0 °F 72.0 °F 69% 29.57 in 10.0 mi Variable 5.8 mph - N/A   Scattered Clouds
1:56 PM 84.9 °F 90.7 °F 72.0 °F 65% 29.55 in 10.0 mi SSW 8.1 mph - N/A   Clear
2:56 PM 87.1 °F 93.6 °F 72.0 °F 61% 29.53 in 10.0 mi Variable 5.8 mph 16.1 mph N/A   Clear
3:56 PM 87.1 °F 92.8 °F 71.1 °F 59% 29.52 in 10.0 mi South 8.1 mph - N/A   Clear
4:56 PM 86.0 °F 92.2 °F 72.0 °F 63% 29.52 in 10.0 mi Variable 3.5 mph - N/A   Clear
5:56 PM 84.0 °F 89.6 °F 72.0 °F 67% 29.52 in 10.0 mi Calm Calm - N/A   Clear
6:56 PM 80.1 °F 83.6 °F 71.1 °F 74% 29.52 in 10.0 mi Calm Calm - N/A   Clear
7:56 PM 78.1 °F - 71.1 °F 79% 29.52 in 10.0 mi Variable 4.6 mph - N/A   Clear
8:56 PM 78.1 °F - 69.1 °F 74% 29.51 in 10.0 mi Variable 4.6 mph - N/A   Clear
9:56 PM 77.0 °F - 69.1 °F 76% 29.51 in 10.0 mi Calm Calm - N/A   Clear
10:56 PM 75.0 °F - 68.0 °F 79% 29.54 in 10.0 mi WSW 4.6 mph - N/A   Clear
11:56 PM 73.0 °F - 68.0 °F 84% 29.54 in 10.0 mi SW 3.5 mph - N/A   Clear